Weather History for KRHP - June, 2013

Change the Weather History Date:

Wednesday, June 19, 2013

  Actual Average (KTYS) Record (KTYS)
Temperature  
Mean Temperature 70 °F 76 °F  
Max Temperature 83 °F 86 °F 97 °F (1944)
Min Temperature 58 °F 66 °F 53 °F (1965)
Degree Days  
Heating Degree Days 0 0  
Month to date heating degree days 0  
Since 1 June heating degree days 0  
Since 1 July heating degree days 3633  
Cooling Degree Days 6 11  
Month to date cooling degree days 172  
Year to date cooling degree days 334  
Since 1 June cooling degree days 172  
Growing Degree Days 20 (Base 50)    
Moisture  
Dew Point 62 °F    
Average Humidity 79    
Maximum Humidity 99    
Minimum Humidity 48    
Precipitation  
Precipitation 0.00 in 0.13 in 1.67 in (1976)
Month to date precipitation 2.34  
Year to date precipitation 23.78  
Snow  
Snow 0.00 in 0.00 in - ()
Month to date snowfall 0.0  
Since 1 June snowfall 0.0  
Since 1 July snowfall 6.5  
Snow Depth -    
Sea Level Pressure  
Sea Level Pressure 30.04 in    
Wind  
Wind Speed 1 mph (East)    
Max Wind Speed 5 mph    
Max Gust Speed -    
Visibility 10 miles    
Events      
T = Trace of Precipitation, MM = Missing Value Source: NWS Daily Summary

Daily Weather History Graph

Daily Weather History Graph

Search for Another Location

Airport or City:

Trip Planner

Search our weather history database for the weather conditions in past years. The results will help you decide how hot, cold, wet, or windy it might be!

Date:

Astronomy

Jun. 19, 2013 Rise Set
Actual Time 6:20 AM EDT 8:52 PM EDT
Civil Twilight 5:51 AM EDT 9:22 PM EDT
Nautical Twilight 5:14 AM EDT 9:59 PM EDT
Astronomical Twilight 4:33 AM EDT 10:40 PM EDT
Moon 4:50 PM EDT (6/19) 2:57 AM EDT (6/19)
Length of Visible Light 15h 31m
Length of Day
14h 31m
Waxing Gibbous, 80% of the Moon is Illuminated
Jun 19
Waxing Gibbous
Jun 23
Full
Jun 30
Last Quarter
Jul 8
New
Jul 15
First Quarter

Hourly Weather History & Observations

Time (EDT) Temp. Heat Index Dew Point Humidity Pressure Visibility Wind Dir Wind Speed Gust Speed Precip Events Conditions
12:15 AM 62.8 °F - 62.1 °F 97% 29.98 in 10.0 mi Calm Calm - N/A   Unknown
12:35 AM 63.3 °F - 61.7 °F 94% 29.98 in 10.0 mi NE 4.6 mph - N/A   Unknown
12:55 AM 63.5 °F - 61.7 °F 94% 29.98 in 10.0 mi Calm Calm - N/A   Unknown
1:15 AM 62.4 °F - 61.7 °F 97% 29.98 in 10.0 mi Calm Calm - N/A   Unknown
1:35 AM 62.1 °F - 61.3 °F 97% 29.98 in 10.0 mi ENE 3.5 mph - N/A   Unknown
1:55 AM 62.2 °F - 61.5 °F 97% 29.98 in 10.0 mi NE 4.6 mph - N/A   Unknown
2:15 AM 61.7 °F - 61.0 °F 97% 29.98 in 10.0 mi Calm Calm - N/A   Unknown
2:35 AM 61.9 °F - 60.6 °F 96% 29.98 in 10.0 mi East 3.5 mph - N/A   Unknown
2:55 AM 61.0 °F - 60.1 °F 97% 29.98 in 10.0 mi Calm Calm - N/A   Unknown
3:15 AM 60.4 °F - 59.9 °F 98% 29.98 in 10.0 mi Calm Calm - N/A   Unknown
3:35 AM 60.3 °F - 59.4 °F 97% 29.98 in 10.0 mi Calm Calm - N/A   Unknown
3:55 AM 59.4 °F - 59.0 °F 99% 29.98 in 10.0 mi Calm Calm - N/A   Unknown
4:15 AM 59.4 °F - 59.0 °F 99% 29.98 in 10.0 mi Calm Calm - N/A   Unknown
4:35 AM 59.2 °F - 58.8 °F 99% 29.98 in 10.0 mi Calm Calm - N/A   Unknown
4:55 AM 59.0 °F - 58.6 °F 99% 29.98 in 10.0 mi NE 3.5 mph - N/A   Unknown
5:15 AM 59.4 °F - 59.0 °F 99% 29.99 in 10.0 mi ESE 3.5 mph - N/A   Unknown
5:35 AM 59.5 °F - 59.0 °F 98% 29.99 in 10.0 mi East 3.5 mph - N/A   Unknown
5:55 AM 59.2 °F - 58.5 °F 97% 29.99 in 10.0 mi Calm Calm - N/A   Unknown
6:15 AM 58.8 °F - 58.1 °F 97% 30.00 in 10.0 mi Calm Calm - N/A   Unknown
6:35 AM 59.2 °F - 58.3 °F 97% 30.01 in 10.0 mi Calm Calm - N/A   Unknown
6:55 AM 59.0 °F - 58.5 °F 98% 30.03 in 10.0 mi Calm Calm - N/A   Unknown
7:15 AM 59.5 °F - 59.0 °F 98% 30.03 in 10.0 mi Calm Calm - N/A   Unknown
7:35 AM 60.3 °F - 59.2 °F 96% 30.04 in 10.0 mi Calm Calm - N/A   Unknown
7:55 AM 60.8 °F - 60.1 °F 97% 30.05 in 10.0 mi SE 3.5 mph - N/A   Unknown
8:15 AM 62.1 °F - 60.1 °F 93% 30.06 in 10.0 mi Calm Calm - N/A   Unknown
8:35 AM 63.1 °F - 60.6 °F 91% 30.06 in 10.0 mi Calm Calm - N/A   Unknown
8:55 AM 65.1 °F - 61.0 °F 86% 30.06 in 10.0 mi East 3.5 mph - N/A   Unknown
9:15 AM 67.5 °F - 61.5 °F 81% 30.06 in 10.0 mi East 4.6 mph - N/A   Unknown
9:35 AM 68.4 °F - 61.7 °F 79% 30.06 in 10.0 mi ESE 3.5 mph - N/A   Unknown
9:55 AM 69.4 °F - 61.0 °F 74% 30.06 in 10.0 mi Calm Calm - N/A   Unknown
10:15 AM 71.1 °F - 62.4 °F 74% 30.06 in 10.0 mi ENE 3.5 mph - N/A   Unknown
10:35 AM 72.3 °F - 61.9 °F 70% 30.06 in 10.0 mi Calm Calm - N/A   Unknown
10:55 AM 73.8 °F - 61.2 °F 65% 30.06 in 10.0 mi Calm Calm - N/A   Unknown
11:15 AM 74.3 °F - 62.4 °F 66% 30.07 in 10.0 mi Calm Calm - N/A   Unknown
11:35 AM 74.7 °F - 61.9 °F 64% 30.07 in 10.0 mi Calm Calm - N/A   Unknown
11:55 AM 75.0 °F - 62.4 °F 65% 30.07 in 10.0 mi Calm Calm - N/A   Unknown
12:15 PM 75.2 °F - 62.8 °F 65% 30.08 in 10.0 mi WNW 4.6 mph - N/A   Unknown
12:35 PM 75.4 °F - 62.4 °F 64% 30.08 in 10.0 mi Calm Calm - N/A   Unknown
12:55 PM 75.4 °F - 62.4 °F 64% 30.08 in 10.0 mi WNW 3.5 mph - N/A   Unknown
1:15 PM 76.6 °F - 63.9 °F 65% 30.08 in 10.0 mi Calm Calm - N/A   Unknown
1:35 PM 77.2 °F - 65.1 °F 66% 30.07 in 10.0 mi Calm Calm - N/A   Unknown
1:55 PM 77.5 °F - 63.9 °F 63% 30.07 in 10.0 mi West 4.6 mph - N/A   Unknown
2:15 PM 79.5 °F - 65.3 °F 62% 30.06 in 10.0 mi SW 4.6 mph - N/A   Unknown
2:35 PM 79.3 °F - 64.8 °F 61% 30.06 in 10.0 mi Calm Calm - N/A   Unknown
2:55 PM 80.6 °F 82.3 °F 64.4 °F 58% 30.05 in 10.0 mi SE 3.5 mph - N/A   Unknown
3:15 PM 79.3 °F - 63.7 °F 59% 30.05 in 10.0 mi ESE 3.5 mph - N/A   Unknown
3:35 PM 81.1 °F 82.5 °F 63.5 °F 55% 30.04 in 10.0 mi Calm Calm - N/A   Unknown
3:55 PM 82.2 °F 83.5 °F 63.5 °F 53% 30.04 in 10.0 mi SSE 3.5 mph - N/A   Unknown
4:15 PM 81.5 °F 82.1 °F 60.4 °F 49% 30.04 in 10.0 mi Calm Calm - N/A   Unknown
4:35 PM 82.9 °F 83.7 °F 61.9 °F 49% 30.04 in 10.0 mi Calm Calm - N/A   Unknown
4:55 PM 81.5 °F 82.5 °F 62.4 °F 52% 30.04 in 10.0 mi ESE 3.5 mph - N/A   Unknown
5:15 PM 80.8 °F 82.9 °F 66.4 °F 61% 30.04 in 10.0 mi SSE 3.5 mph - N/A   Unknown
5:35 PM 80.6 °F 82.9 °F 67.1 °F 63% 30.04 in 10.0 mi SSE 3.5 mph - N/A   Unknown
5:55 PM 83.1 °F 84.4 °F 63.9 °F 52% 30.04 in 10.0 mi Calm Calm - N/A   Unknown
6:15 PM 82.2 °F 83.7 °F 64.2 °F 54% 30.04 in 10.0 mi Calm Calm - N/A   Unknown
6:35 PM 82.4 °F 82.9 °F 61.0 °F 48% 30.04 in 10.0 mi North 4.6 mph - N/A   Unknown
6:55 PM 82.6 °F 83.2 °F 61.9 °F 49% 30.04 in 10.0 mi ENE 4.6 mph - N/A   Unknown
7:15 PM 81.5 °F 82.5 °F 62.4 °F 52% 30.05 in 10.0 mi NE 3.5 mph - N/A   Unknown
7:35 PM 79.9 °F - 63.7 °F 58% 30.06 in 10.0 mi Calm Calm - N/A   Unknown
7:55 PM 77.2 °F - 65.7 °F 67% 30.06 in 10.0 mi Calm Calm - N/A   Unknown
8:15 PM 73.6 °F - 66.0 °F 77% 30.06 in 10.0 mi Calm Calm - N/A   Unknown
8:35 PM 71.8 °F - 64.9 °F 79% 30.07 in 10.0 mi Calm Calm - N/A   Unknown
8:55 PM 69.8 °F - 64.2 °F 82% 30.08 in 10.0 mi Calm Calm - N/A   Unknown
9:15 PM 68.4 °F - 63.9 °F 85% 30.09 in 10.0 mi Calm Calm - N/A   Unknown
9:35 PM 68.4 °F - 63.9 °F 85% 30.10 in 10.0 mi Calm Calm - N/A   Unknown
9:55 PM 67.6 °F - 63.5 °F 87% 30.11 in 10.0 mi Calm Calm - N/A   Unknown
10:15 PM 67.1 °F - 63.5 °F 88% 30.12 in 10.0 mi Calm Calm - N/A   Unknown
10:35 PM 66.2 °F - 63.0 °F 89% 30.13 in 10.0 mi Calm Calm - N/A   Unknown
10:55 PM 65.7 °F - 62.6 °F 90% 30.14 in 10.0 mi North 3.5 mph - N/A   Unknown
11:15 PM 65.3 °F - 63.1 °F 93% 30.15 in 10.0 mi Calm Calm - N/A   Unknown
11:35 PM 64.2 °F - 62.8 °F 95% 30.15 in 10.0 mi Calm Calm - N/A   Unknown
11:55 PM 64.4 °F - 62.8 °F 94% 30.15 in 10.0 mi Calm Calm - N/A   Unknown